Showing default

PERSEUS M1, 40039

Orbit data source: Space-Track

PERSEUS M1, 40039 is a payload satellite owned by Canopus Sys (CIS) in SSO that was launched on Thu, 19 Jun 2014 UTC via a DNEPR launch vehicle from the Orenburg, Russia (OREN). Payloads include a variety of satellites, spacecraft, and rockets equipped with specific instruments for various scientific and technological missions. These include communications satellites like Starlink; space stations such as the ISS; scientific satellites like the Hubble; Earth observation satellites from companies like Planet Labs, Umbra, and HawkEye 360; GPS; miniature CubeSats for education and research; and military/defense satellites.

Loading next visibility...
PERSEUS M1 details
Identifier
40039, 2014-033AF
Orbit
SSO
Last TLE update8 hours ago
Origin
Flag of CISCanopus Sys (CIS)
ManufacturerCanopus Sys
MissionOperational Commercial Communications
Bus & MotorCUBESAT 6U, Unknown motor
Mass~10 kg wet, ~10 kg dry
Launch date (UTC)
2014-06-19 (11 years ago)
Launch vehicle
DNEPR
Launch site
Orenburg, Russia (OREN)
Object type
Payload
Rocket body
Debris
Shape & HBRBox, 0.3 m
Radar Cross Section0.105 m², Medium (>0.1 m² and < 1m²)

Expand to show TLE details & history

TLE from 8 hours ago
0 PERSEUS M1
1 40039U 14033AF  24361.22868561  .00005789  00000-0  57136-3 0  9995
2 40039  97.9188 288.5485 0010740 283.7295  76.2728 14.92328707570308
Epoch: 2024-12-26T05:29Z
Definitive object data (Epoch: 2024-12-26T05:29:18.436Z)
Latitude-0.00002°
Longitude111.0106°
Altitude591.945 km
Speed7.565 km/s
True Right ascension19h 14m 11s
True Declination0° 00' 00"
Sunlit
Object was in daylight at TLE epoch
Visualization TLE readout
Latitude75.61426°
Longitude78.72236°
Altitude610.355 km
Speed7.557 km/s
Apparent Right ascension23h 53m 19s
Apparent Declination32° 19' 46"
Sunlit
Object is in daylight
Visualization observer readout
Local Sidereal Time13:14:41
Azimuth17.732° NNE
Elevation-15.339°
Doppler factor1
Orbital elements
Apogee altitude595.183 km
Perigee altitude580.221 km
Semi-major axis6,965.839 km
Eccentricity0.001074
Inclination97.9188°
RAAN288.5485°
Arg. of periapsis283.7295°
True anomaly76.39239°
Mean anomaly76.2728°
Eccentric anomaly76.33259°
Mean motion3.73322 °/min
BSTAR0.00057136
Orbital period96.43 mins
Loading maneuver chart data...
Loading historical data...
Loading historical data...
Loading historical data...
Loading historical data...
Loading historical data...
Loading historical data...
Loading historical data...

PERSEUS M1 Visibility forecast

Observer location: undefined°, undefined

Span
Click to sort rows by Start time (UTC) header in descending order
Start Az.
Max El. time (UTC)
Max El. Az.
Max El.
End time (UTC)
End Az.
5 mins2024-12-26 18:30:56.596Z110.62° ESE2024-12-26 18:32:56.596Z77.099° E20.288°2024-12-26 18:35:56.596Z23.639° NE
5 mins2024-12-26 20:06:56.596Z222.89° SW2024-12-26 20:08:56.596Z269.661° W25.646°2024-12-26 20:11:56.596Z321.153° NNW
5 mins2024-12-27 07:49:56.596Z44.881° NE2024-12-27 07:51:56.596Z100.57° ESE32.988°2024-12-27 07:54:56.596Z163.976° S
|